Location: *
(42.5628°N, 2.3633°E)
Time: 08:48:58
(UTC+00:00)

S3M - Pass Details

Date: 30 March 2020
Orbit: 948 x 1005 km, 83.0° (Epoch: 03 June)

Event Time Altitude Azimuth Distance (km) Brightness Sun altitude
Rises 18:55:31 0° 188° (S) 3,698 7.0 -8.2°
Reaches altitude 10° 18:58:01 10° 189° (S) 2,758 6.3 -8.7°
Maximum altitude 19:04:23 83° 277° (W) 1,016 4.2 -9.8°
Drops below altitude 10° 19:10:49 10° 6° (N) 2,790 6.5 -11.0°
Sets 19:13:22 0° 8° (N) 3,742 7.2 -11.4°
